H1 CPF 2 NER 2021 1 10 9 010 01 glonass141 H2 1908801 9141 44850 2021 1 10 0 0 0 2021 1 13 23 45 0 900 1 1 0 0 0 1 H9 10 0 59224 0.00000 0 21761305.389 13290891.956 874078.200 10 0 59224 900.00000 0 21572642.447 13004827.335 4073336.343 10 0 59224 1800.00000 0 21010275.720 12571346.648 7193544.010 10 0 59224 2700.00000 0 20067155.926 12046668.630 10174186.703 10 0 59224 3600.00000 0 18749462.141 11488439.735 12957491.055 10 0 59224 4500.00000 0 17076516.184 10953126.881 15489538.478 10 0 59224 5400.00000 0 15080161.906 10493476.066 17721301.662 10 0 59224 6300.00000 0 12803635.067 10156143.647 19609584.645 10 0 59224 7200.00000 0 10299970.796 9979599.515 21117849.144 10 0 59224 8100.00000 0 7630014.366 9992389.727 22216912.330 10 0 59224 9000.00000 0 4860117.090 10211831.004 22885503.623 10 0 59224 9900.00000 0 2059611.934 10643191.475 23110670.702 10 0 59224 10800.00000 0 -701827.879 11279391.899 22888027.624 10 0 59224 11700.00000 0 -3356839.351 12101240.098 22221840.643 10 0 59224 12600.00000 0 -5842920.920 13078189.387 21124950.085 10 0 59224 13500.00000 0 -8104780.192 14169590.148 19618529.372 10 0 59224 14400.00000 0 -10096382.139 15326383.289 17731685.090 10 0 59224 15300.00000 0 -11782613.702 16493165.881 15500904.792 10 0 59224 16200.00000 0 -13140496.364 17610543.547 12969362.008 10 0 59224 17100.00000 0 -14159896.697 18617671.926 10186090.621 10 0 59224 18000.00000 0 -14843705.366 19454881.057 7205043.508 10 0 59224 18900.00000 0 -15207477.228 20066272.610 4084052.747 10 0 59224 19800.00000 0 -15278547.600 20402180.345 883710.899 10 0 59224 20700.00000 0 -15094661.792 20421389.475 -2333805.075 10 0 59224 21600.00000 0 -14702175.744 20093020.201 -5505944.345 10 0 59224 22500.00000 0 -14153903.848 19397994.569 -8571003.248 10 0 59224 23400.00000 0 -13506705.307 18330023.139 -11469332.291 10 0 59224 24300.00000 0 -12818911.610 16896068.160 -14144504.842 10 0 59224 25200.00000 0 -12147704.701 15116262.029 -16544423.895 10 0 59224 26100.00000 0 -11546557.571 13023283.002 -18622344.425 10 0 59224 27000.00000 0 -11062846.423 10661213.057 -20337790.790 10 0 59224 27900.00000 0 -10735736.210 8083924.764 -21657350.743 10 0 59224 28800.00000 0 -10594429.656 5353064.043 -22555330.225 10 0 59224 29700.00000 0 -10656854.338 2535712.642 -23014256.044 10 0 59224 30600.00000 0 -10928843.679 -298172.411 -23025216.641 10 0 59224 31500.00000 0 -11403846.675 -3078435.657 -22588034.388 10 0 59224 32400.00000 0 -12063178.651 -5737405.024 -21711266.281 10 0 59224 33300.00000 0 -12876802.401 -8212467.120 -20412033.197 10 0 59224 34200.00000 0 -13804606.516 -10448429.028 -18715681.308 10 0 59224 35100.00000 0 -14798126.649 -12399568.793 -16655282.501 10 0 59224 36000.00000 0 -15802636.693 -14031289.973 -14270983.812 10 0 59224 36900.00000 0 -16759521.162 -15321312.265 -11609218.912 10 0 59224 37800.00000 0 -17608828.187 -16260349.881 -8721797.420 10 0 59224 38700.00000 0 -18291894.912 -16852251.011 -5664890.209 10 0 59224 39600.00000 0 -18753934.088 -17113594.319 -2497931.077 10 0 59224 40500.00000 0 -18946472.388 -17072761.397 717543.286 10 0 59224 41400.00000 0 -18829537.418 -16768526.110 3919091.952 10 0 59224 42300.00000 0 -18373501.146 -16248221.911 7044583.200 10 0 59224 43200.00000 0 -17560502.152 -15565565.836 10033398.900 10 0 59224 44100.00000 0 -16385386.958 -14778231.956 12827606.411 10 0 59224 45000.00000 0 -14856131.033 -13945277.210 15373075.421 10 0 59224 45900.00000 0 -12993721.844 -13124528.279 17620518.578 10 0 59224 46800.00000 0 -10831508.704 -12370039.321 19526436.571 10 0 59224 47700.00000 0 -8414046.272 -11729726.979 21053950.288 10 0 59224 48600.00000 0 -5795479.291 -11243281.290 22173505.061 10 0 59224 49500.00000 0 -3037534.796 -10940439.393 22863434.536 10 0 59224 50400.00000 0 -207204.103 -10839693.638 23110374.172 10 0 59224 51300.00000 0 2625790.727 -10947487.693 22909517.172 10 0 59224 52200.00000 0 5391642.553 -11257934.020 22264708.305 10 0 59224 53100.00000 0 8023108.838 -11753064.627 21188373.807 10 0 59224 54000.00000 0 10458057.178 -12403605.002 19701288.351 10 0 59224 54900.00000 0 12641802.528 -13170239.543 17832182.800 10 0 59224 55800.00000 0 14529140.174 -14005316.337 15617199.319 10 0 59224 56700.00000 0 16085990.802 -14854920.777 13099203.160 10 0 59224 57600.00000 0 17290589.691 -15661231.827 10326963.144 10 0 59224 58500.00000 0 18134170.570 -16365062.559 7354215.617 10 0 59224 59400.00000 0 18621115.576 -16908478.353 4238629.055 10 0 59224 60300.00000 0 18768564.898 -17237382.376 1040688.737 10 0 59224 61200.00000 0 18605502.301 -17303958.739 -2177477.055 10 0 59224 62100.00000 0 18171354.889 -17068869.268 -5353306.461 10 0 59224 63000.00000 0 17514166.123 -16503109.764 -8425025.163 10 0 59224 63900.00000 0 16688419.344 -15589445.797 -11332854.707 10 0 59224 64800.00000 0 15752604.083 -14323365.613 -14020183.707 10 0 59224 65700.00000 0 14766628.512 -12713508.154 -16434678.254 10 0 59224 66600.00000 0 13789188.046 -10781546.403 -18529308.984 10 0 59224 67500.00000 0 12875201.991 -8561529.380 -20263274.120 10 0 59224 68400.00000 0 12073427.211 -6098709.051 -21602799.962 10 0 59224 69300.00000 0 11424350.168 -3447900.285 -22521802.831 10 0 59224 70200.00000 0 10958446.743 -671441.697 -23002399.435 10 0 59224 71100.00000 0 10694883.493 2163158.001 -23035255.715 10 0 59224 72000.00000 0 10640715.126 4985790.207 -22619767.444 10 0 59224 72900.00000 0 10790611.872 7726426.283 -21764069.272 10 0 59224 73800.00000 0 11127127.852 10317795.652 -20484872.242 10 0 59224 74700.00000 0 11621498.589 12697950.699 -18807133.196 10 0 59224 75600.00000 0 12234933.369 14812612.036 -16763562.758 10 0 59224 76500.00000 0 12920347.203 16617196.960 -14393981.764 10 0 59224 77400.00000 0 13624458.456 18078447.160 -11744539.046 10 0 59224 78300.00000 0 14290162.863 19175588.877 -8866806.199 10 0 59224 79200.00000 0 14859082.855 19900978.308 -5816767.433 10 0 59224 80100.00000 0 15274183.902 20260206.807 -2653724.763 10 0 59224 81000.00000 0 15482346.782 20271663.248 560859.567 10 0 59224 81900.00000 0 15436786.757 19965573.754 3764560.421 10 0 59224 82800.00000 0 15099217.294 19382560.869 6895203.023 10 0 59224 83700.00000 0 14441666.959 18571784.367 9892068.300 10 0 59224 84600.00000 0 13447872.913 17588743.165 12697066.852 10 0 59224 85500.00000 0 12114192.405 16492831.688 15255858.908 10 0 59225 0.00000 0 10449994.024 15344753.869 17518899.041 10 0 59225 900.00000 0 8477511.660 14203903.620 19442386.420 10 0 59225 1800.00000 0 6231168.179 13125820.782 20989102.516 10 0 59225 2700.00000 0 3756394.528 12159829.731 22129121.967 10 0 59225 3600.00000 0 1107994.239 11346957.259 22840383.456 10 0 59225 4500.00000 0 -1651880.826 10718217.013 23109110.648 10 0 59225 5400.00000 0 -4456060.531 10293330.877 22930075.897 10 0 59225 6300.00000 0 -7234897.435 10079940.181 22306702.016 10 0 59225 7200.00000 0 -9918914.915 10073339.310 21251000.172 10 0 59225 8100.00000 0 -12441454.362 10256742.736 19783344.791 10 0 59225 9000.00000 0 -14741213.181 10602074.543 17932089.024 10 0 59225 9900.00000 0 -16764569.353 11071247.852 15733027.214 10 0 59225 10800.00000 0 -18467596.936 11617881.170 13228713.546 10 0 59225 11700.00000 0 -19817689.094 12189380.273 10467648.746 10 0 59225 12600.00000 0 -20794721.135 12729298.703 7503349.460 10 0 59225 13500.00000 0 -21391704.895 13179877.823 4393317.372 10 0 59225 14400.00000 0 -21614906.767 13484659.395 1197927.349 10 0 59225 15300.00000 0 -21483424.042 13591060.010 -2020744.028 10 0 59225 16200.00000 0 -21028237.029 13452797.844 -5200126.716 10 0 59225 17100.00000 0 -20290776.577 13032067.971 -8278378.420 10 0 59225 18000.00000 0 -19321067.304 12301372.787 -11195594.188 10 0 59225 18900.00000 0 -18175524.978 11244928.462 -13894980.090 10 0 59225 19800.00000 0 -16914501.294 9859586.128 -16323967.236 10 0 59225 20700.00000 0 -15599680.153 8155227.149 -18435243.497 10 0 59225 21600.00000 0 -14291435.883 6154614.013 -20187682.155 10 0 59225 22500.00000 0 -13046265.364 3892701.497 -21547148.846 10 0 59225 23400.00000 0 -11914402.875 1415435.756 -22487170.641 10 0 59225 24300.00000 0 -10937718.468 -1221909.472 -22989454.112 10 0 59225 25200.00000 0 -10147988.564 -3956790.749 -23044242.261 10 0 59225 26100.00000 0 -9565611.464 -6721761.421 -22650503.429 10 0 59225 27000.00000 0 -9198821.531 -9447048.335 -21815948.730 10 0 59225 27900.00000 0 -9043434.491 -12063231.608 -20556877.843 10 0 59225 28800.00000 0 -9083133.819 -14503915.842 -18897856.438 10 0 59225 29700.00000 0 -9290285.151 -16708281.667 -16871231.788 10 0 59225 30600.00000 0 -9627243.327 -18623411.608 -14516496.246 10 0 59225 31500.00000 0 -10048095.789 -20206293.589 -11879511.397 10 0 59225 32400.00000 0 -10500767.635 -21425419.240 -9011608.358 10 0 59225 33300.00000 0 -10929398.337 -22261911.130 -5968582.225 10 0 59225 34200.00000 0 -11276888.739 -22710132.966 -2809600.833 10 0 59225 35100.00000 0 -11487509.874 -22777758.667 403950.360 10 0 59225 36000.00000 0 -11509462.696 -22485299.003 3609664.288 10 0 59225 36900.00000 0 -11297280.153 -21865107.286 6745325.344 10 0 59225 37800.00000 0 -10813969.874 -20959907.416 9750115.679 10 0 59225 38700.00000 0 -10032806.988 -19820907.464 12565791.244 10 0 59225 39600.00000 0 -8938701.484 -18505579.029 15137804.828 10 0 59225 40500.00000 0 -7529082.577 -17075196.218 17416354.884 10 0 59225 41400.00000 0 -5814262.752 -15592237.687 19357340.570 10 0 59225 42300.00000 0 -3817265.979 -14117760.385 20923205.424 10 0 59225 43200.00000 0 -1573126.648 -12708854.339 22083654.517 10 0 59225 44100.00000 0 872312.401 -11416284.015 22816232.327 10 0 59225 45000.00000 0 3464053.836 -10282413.764 23106751.129 10 0 59225 45900.00000 0 6139984.481 -9339502.871 22949562.470 10 0 59225 46800.00000 0 8833215.649 -8608440.320 22347666.890 10 0 59225 47700.00000 0 11474629.727 -8097971.343 21312659.845 10 0 59225 48600.00000 0 13995529.086 -7804447.441 19864514.549 10 0 59225 49500.00000 0 16330279.020 -7712110.131 18031205.166 10 0 59225 50400.00000 0 18418836.163 -7793896.590 15848176.635 10 0 59225 51300.00000 0 20209058.296 -8012733.765 13357670.181 10 0 59225 52200.00000 0 21658699.969 -8323267.019 10607916.219 10 0 59225 53100.00000 0 22737010.821 -8673951.148 7652209.171 10 0 59225 54000.00000 0 23425869.737 -9009416.019 4547881.114 10 0 59225 54900.00000 0 23720406.940 -9273007.158 1355193.452 10 0 59225 55800.00000 0 23629087.308 -9409393.808 -1863832.122 10 0 59225 56700.00000 0 23173250.896 -9367133.585 -5046620.620 10 0 59225 57600.00000 0 22386129.380 -9101084.279 -8131264.913 10 0 59225 58500.00000 0 21311379.481 -8574559.438 -11057736.507 10 0 59225 59400.00000 0 20001194.992 -7761134.942 -13769061.605 10 0 59225 60300.00000 0 18514076.989 -6646028.378 -16212438.673 10 0 59225 61200.00000 0 16912356.474 -5226991.127 -18340274.793 10 0 59225 62100.00000 0 15259574.214 -3514673.672 -20111119.907 10 0 59225 63000.00000 0 13617828.547 -1532447.002 -21490480.205 10 0 59225 63900.00000 0 12045203.241 684313.873 -22451494.338 10 0 59225 64800.00000 0 10593383.899 3089455.493 -22975459.179 10 0 59225 65700.00000 0 9305563.197 5627730.335 -23052194.823 10 0 59225 66600.00000 0 8214722.910 8236870.169 -22680241.823 10 0 59225 67500.00000 0 7342364.454 10849962.315 -21866886.997 10 0 59225 68400.00000 0 6697740.590 13398029.855 -20628017.529 10 0 59225 69300.00000 0 6277619.644 15812708.293 -18987806.430 10 0 59225 70200.00000 0 6066590.946 18028907.066 -16978235.798 10 0 59225 71100.00000 0 6037897.302 19987345.030 -14638467.375 10 0 59225 72000.00000 0 6154757.979 21636854.207 -12014073.074 10 0 59225 72900.00000 0 6372124.964 22936355.978 -9156140.863 10 0 59225 73800.00000 0 6638796.919 23856427.724 -6120273.827 10 0 59225 74700.00000 0 6899800.291 24380395.129 -2965502.567 10 0 59225 75600.00000 0 7098935.792 24504905.552 246867.388 10 0 59225 76500.00000 0 7181381.681 24239959.674 3454450.166 10 0 59225 77400.00000 0 7096243.163 23608401.481 6594992.372 10 0 59225 78300.00000 0 6798939.715 22644889.400 9607580.249 10 0 59225 79200.00000 0 6253329.301 21394393.029 12433817.711 10 0 59225 80100.00000 0 5433479.814 19910279.555 15018952.441 10 0 59225 81000.00000 0 4325013.080 18252070.846 17312928.754 10 0 59225 81900.00000 0 2925964.836 16482965.422 19271347.575 10 0 59225 82800.00000 0 1247124.402 14667228.956 20856315.857 10 0 59225 83700.00000 0 -688160.638 12867561.844 22037170.133 10 0 59225 84600.00000 0 -2844707.355 11142552.874 22791061.369 10 0 59225 85500.00000 0 -5176718.811 9544324.149 23103390.771 10 0 59226 0.00000 0 -7629454.309 8116464.159 22968088.993 10 0 59226 900.00000 0 -10141280.933 6892334.046 22387733.726 10 0 59226 1800.00000 0 -12646022.205 5893815.903 21373503.707 10 0 59226 2700.00000 0 -15075508.776 5130555.672 19944969.399 10 0 59226 3600.00000 0 -17362226.474 4599729.984 18129723.956 10 0 59226 4500.00000 0 -19441953.020 4286347.613 15962860.443 10 0 59226 5400.00000 0 -21256274.892 4164072.244 13486304.260 10 0 59226 6300.00000 0 -22754880.149 4196532.384 10748012.353 10 0 59226 7200.00000 0 -23897531.726 4339063.638 7801053.578 10 0 59226 8100.00000 0 -24655638.617 4540810.238 4702586.988 10 0 59226 9000.00000 0 -25013358.650 4747097.338 1512757.120 10 0 59226 9900.00000 0 -24968185.853 4901973.797 -1706472.517 10 0 59226 10800.00000 0 -24530996.929 4950817.490 -4892525.134 10 0 59226 11700.00000 0 -23725554.003 4842892.105 -7983431.721 10 0 59226 12600.00000 0 -22587483.891 4533746.101 -10919042.968 10 0 59226 13500.00000 0 -21162776.307 3987350.823 -13642207.674 10 0 59226 14400.00000 0 -19505863.985 3177885.646 -16099893.809 10 0 59226 15300.00000 0 -17677365.491 2091092.943 -18244229.428 10 0 59226 16200.00000 0 -15741585.893 725143.821 -20033442.446 10 0 59226 17100.00000 0 -13763880.627 -909023.622 -21432680.414 10 0 59226 18000.00000 0 -11807993.713 -2787909.333 -22414693.831 10 0 59226 18900.00000 0 -9933482.334 -4876192.387 -22960369.593 10 0 59226 19800.00000 0 -8193335.912 -7127978.214 -23059104.083 10 0 59226 20700.00000 0 -6631889.516 -9488500.475 -22709008.767 10 0 59226 21600.00000 0 -5283118.628 -11896207.012 -21916944.441 10 0 59226 22500.00000 0 -4169386.103 -14285143.036 -20698383.686 10 0 59226 23400.00000 0 -3300692.895 -16587532.056 -19077104.468 10 0 59226 24300.00000 0 -2674462.702 -18736446.827 -17084721.084 10 0 59226 25200.00000 0 -2275868.097 -20668458.706 -14760061.899 10 0 59226 26100.00000 0 -2078682.753 -22326154.666 -12148406.342 10 0 59226 27000.00000 0 -2046622.186 -23660416.852 -9300596.418 10 0 59226 27900.00000 0 -2135114.723 -24632369.575 -6272040.491 10 0 59226 28800.00000 0 -2293426.391 -25214912.658 -3121629.340 10 0 59226 29700.00000 0 -2467048.515 -25393777.623 89413.855 10 0 59226 30600.00000 0 -2600245.892 -25168063.351 3298726.681 10 0 59226 31500.00000 0 -2638656.922 -24550229.813 6444020.041 10 0 59226 32400.00000 0 -2531835.110 -23565551.314 9464286.205 10 0 59226 33300.00000 0 -2235624.224 -22251053.273 12300978.835 10 0 59226 34200.00000 0 -1714266.662 -20653978.127 14899142.123 10 0 59226 35100.00000 0 -942156.173 -18829845.308 17208467.674 10 0 59226 36000.00000 0 94838.893 -16840186.851 19184259.393 10 0 59226 36900.00000 0 1398537.407 -14750053.281 20788288.598 10 0 59226 37800.00000 0 2958127.769 -12625393.456 21989523.960 10 0 59226 38700.00000 0 4750384.544 -10530416.774 22764723.310 10 0 59226 39600.00000 0 6740411.136 -8525046.568 23098876.853 10 0 59226 40500.00000 0 8882878.689 -6662569.337 22985494.106 10 0 59226 41400.00000 0 11123711.081 -4987576.196 22426729.481 10 0 59226 42300.00000 0 13402147.413 -3534280.927 21433344.211 10 0 59226 43200.00000 0 15653097.990 -2325283.377 20024505.054 10 0 59226 44100.00000 0 17809697.458 -1370828.788 18227422.958 10 0 59226 45000.00000 0 19805950.272 -668593.328 16076837.691 10 0 59226 45900.00000 0 21579359.542 -204004.371 13614357.166 10 0 59226 46800.00000 0 23073430.421 48918.013 10887662.953 10 0 59226 47700.00000 0 24239943.786 126233.588 7949596.153 10 0 59226 48600.00000 0 25040905.029 72324.226 4857140.339 10 0 59226 49500.00000 0 25450085.835 -62220.106 1670320.501 10 0 59226 50400.00000 0 25454093.361 -222982.362 -1548960.926 10 0 59226 51300.00000 0 25052920.953 -354265.482 -4738128.336 10 0 59226 52200.00000 0 24259956.089 -401697.130 -7835153.821 10 0 59226 53100.00000 0 23101444.194 -314780.920 -10779770.124 10 0 59226 54000.00000 0 21615430.011 -49284.867 -13514651.301 10 0 59226 54900.00000 0 19850220.404 430635.495 -15986537.201 10 0 59226 55800.00000 0 17862432.889 1150670.778 -18147278.909 10 0 59226 56700.00000 0 15714711.776 2125024.498 -19954784.046 10 0 59226 57600.00000 0 13473207.896 3355570.933 -21373842.914 10 0 59226 58500.00000 0 11204927.862 4831541.067 -22376818.929 10 0 59226 59400.00000 0 8975064.197 6529751.261 -22944189.732 10 0 59226 60300.00000 0 6844418.245 8415366.216 -23064928.377 10 0 59226 61200.00000 0 4867023.727 10443165.051 -22736717.240 10 0 59226 62100.00000 0 3088070.119 12559258.114 -21965990.695 10 0 59226 63000.00000 0 1542212.041 14703183.008 -20767805.916 10 0 59226 63900.00000 0 252334.642 16810292.225 -19165544.577 10 0 59226 64800.00000 0 -771174.652 18814332.516 -17190451.548 10 0 59226 65700.00000 0 -1530618.969 20650107.974 -14881019.796 10 0 59226 66600.00000 0 -2040643.033 22256115.155 -12282233.898 10 0 59226 67500.00000 0 -2327358.986 23577039.838 -9444687.230 10 0 59226 68400.00000 0 -2426985.696 24566010.811 -6423590.521 10 0 59226 69300.00000 0 -2384060.787 25186516.343 -3277691.637 10 0 59226 70200.00000 0 -2249302.536 25413903.345 -68128.223 10 0 59226 71100.00000 0 -2077213.487 25236396.892 3142763.964 10 0 59226 72000.00000 0 -1923528.191 24655598.047 6292663.257 10 0 59226 72900.00000 0 -1842613.860 23686440.016 9320470.935 10 0 59226 73800.00000 0 -1884934.314 22356605.303 12167493.166 10 0 59226 74700.00000 0 -2094684.537 20705429.178 14778573.154 10 0 59226 75600.00000 0 -2507695.666 18782335.979 17103151.999 10 0 59226 76500.00000 0 -3149698.600 16644873.985 19096238.487 10 0 59226 77400.00000 0 -4035019.097 14356430.968 20719269.883 10 0 59226 78300.00000 0 -5165759.186 11983725.327 21940848.261 10 0 59226 79200.00000 0 -6531499.422 9594176.473 22737339.236 10 0 59226 80100.00000 0 -8109534.911 7253262.884 23093322.578 10 0 59226 81000.00000 0 -9865636.101 5021976.258 23001886.844 10 0 59226 81900.00000 0 -11755303.770 2954476.031 22464762.869 10 0 59226 82800.00000 0 -13725467.264 1096040.312 21492293.664 10 0 59226 83700.00000 0 -15716556.852 -518603.061 20103241.040 10 0 59226 84600.00000 0 -17664865.484 -1866497.105 18324432.011 10 0 59226 85500.00000 0 -19505102.998 -2937177.952 16190250.822 10 0 59227 0.00000 0 -21173037.575 -3732869.322 13741985.317 10 0 59227 900.00000 0 -22608114.923 -4268141.371 11027038.537 10 0 59227 1800.00000 0 -23755946.666 -4569048.593 8098020.594 10 0 59227 2700.00000 0 -24570562.660 -4671782.396 5011736.093 10 0 59227 3600.00000 0 -25016333.775 -4620895.777 1828086.899 10 0 59227 4500.00000 0 -25069482.407 -4467174.367 -1391089.190 10 0 59227 5400.00000 0 -24719116.674 -4265244.299 -4583221.250 10 0 59227 6300.00000 0 -23967743.299 -4071018.398 -7686225.836 10 0 59227 7200.00000 0 -22831236.323 -3939089.524 -10639720.932 10 0 59227 8100.00000 0 -21338261.708 -3920182.446 -13386208.789 10 0 59227 9000.00000 0 -19529181.016 -4058773.384 -15872203.776 10 0 59227 9900.00000 0 -17454479.507 -4390979.368 -18049282.252 10 0 59227 10800.00000 0 -15172784.208 -4942808.166 -19875033.296 10 0 59227 11700.00000 0 -12748554.871 -5728844.271 -21313891.151 10 0 59227 12600.00000 0 -10249544.611 -6751427.767 -22337832.707 10 0 59227 13500.00000 0 -7744136.597 -8000361.988 -22926926.248 10 0 59227 14400.00000 0 -5298668.259 -9453163.390 -23069720.737 10 0 59227 15300.00000 0 -2974854.857 -11075843.941 -22763468.106 10 0 59227 16200.00000 0 -827419.850 -12824193.808 -22014174.421 10 0 59227 17100.00000 0 1097969.483 -14645510.932 -20836479.118 10 0 59227 18000.00000 0 2766375.577 -16480705.021 -19253364.911 10 0 59227 18900.00000 0 4154804.461 -18266687.783 -17295704.301 10 0 59227 19800.00000 0 5252910.595 -19938948.988 -15001651.755 10 0 59227 20700.00000 0 6063164.734 -21434210.053 -12415893.786 10 0 59227 21600.00000 0 6600479.735 -22693043.604 -9588771.925 10 0 59227 22500.00000 0 6891312.005 -23662348.869 -6575296.086 10 0 59227 23400.00000 0 6972278.421 -24297578.862 -3434068.164 10 0 59227 24300.00000 0 6888348.952 -24564625.906 -226137.364 10 0 59227 25200.00000 0 6690693.002 -24441286.551 2986189.906 10 0 59227 26100.00000 0 6434271.833 -23918244.773 6140561.857 10 0 59227 27000.00000 0 6175279.935 -22999532.761 9175790.950 10 0 59227 27900.00000 0 5968544.155 -21702450.573 12033037.754 10 0 59227 28800.00000 0 5864990.813 -20056948.671 14656946.059 10 0 59227 29700.00000 0 5909287.745 -18104499.702 16996707.724 10 0 59227 30600.00000 0 6137760.506 -15896506.925 19007037.330 10 0 59227 31500.00000 0 6576670.180 -13492315.794 20649038.673 10 0 59227 32400.00000 0 7240924.888 -10956911.176 21890947.454 10 0 59227 33300.00000 0 8133278.985 -8358395.289 22708736.978 10 0 59227 34200.00000 0 9244053.563 -5765350.208 23086576.164 10 0 59227 35100.00000 0 10551390.433 -3244193.085 23017131.931 10 0 59227 36000.00000 0 12022029.738 -856632.308 22501710.616 10 0 59227 36900.00000 0 13612579.811 1342671.337 21550235.899 10 0 59227 37800.00000 0 15271227.648 3308142.978 20181063.371 10 0 59227 38700.00000 0 16939820.083 5004948.144 18420634.697 10 0 59227 39600.00000 0 18556230.251 6410195.636 16302977.066 10 0 59227 40500.00000 0 20056911.785 7513639.538 13869056.437 10 0 59227 41400.00000 0 21379535.019 8317851.574 11165995.729 10 0 59227 42300.00000 0 22465595.362 8837856.827 8246171.918 10 0 59227 43200.00000 0 23262884.744 9100248.218 5166208.452 10 0 59227 44100.00000 0 23727722.003 9141816.933 1985881.683 10 0 59227 45000.00000 0 23826847.715 9007756.461 -1233037.759 10 0 59227 45900.00000 0 23538902.625 8749516.156 -4427986.250 10 0 59227 46800.00000 0 22855426.001 8422395.306 -7536827.448 10 0 59227 47700.00000 0 21781330.365 8082980.009 -10499067.121 10 0 59227 48600.00000 0 20334831.110 7786532.118 -13257038.117 10 0 59227 49500.00000 0 18546832.534 7584441.830 -15757031.488 10 0 59227 50400.00000 0 16459795.008 7521852.871 -17950350.782 10 0 59227 51300.00000 0 14126129.977 7635562.069 -19794268.180 10 0 59227 52200.00000 0 11606189.484 7952283.377 -21252863.255 10 0 59227 53100.00000 0 8965934.216 8487350.883 -22297727.496 10 0 59227 54000.00000 0 6274377.453 9243916.653 -22908520.705 10 0 59227 54900.00000 0 3600911.669 10212678.133 -23073368.350 10 0 59227 55800.00000 0 1012629.466 11372147.299 -22789092.187 10 0 59227 56700.00000 0 -1428249.561 12689450.726 -22061269.877 10 0 59227 57600.00000 0 -3666739.031 14121627.233 -20904122.609 10 0 59227 58500.00000 0 -5657135.092 15617368.614 -19340233.194 10 0 59227 59400.00000 0 -7364670.215 17119130.222 -17400100.388 10 0 59227 60300.00000 0 -8766703.588 18565522.488 -15121538.373 10 0 59227 61200.00000 0 -9853399.744 19893882.505 -12548933.461 10 0 59227 62100.00000 0 -10627868.800 21042917.223 -9732372.893 10 0 59227 63000.00000 0 -11105764.362 21955306.753 -6726663.095 10 0 59227 63900.00000 0 -11314357.999 22580157.959 -3590257.155 10 0 59227 64800.00000 0 -11291131.296 22875205.005 -384112.913 10 0 59227 65700.00000 0 -11081946.723 22808664.240 2829495.530 10 0 59227 66600.00000 0 -10738876.113 22360665.583 5988189.190 10 0 59227 67500.00000 0 -10317779.797 21524200.514 9030694.570 10 0 59227 68400.00000 0 -9875739.531 20305547.275 11898029.365 10 0 59227 69300.00000 0 -9468454.152 18724155.829 14534640.520 10 0 59227 70200.00000 0 -9147708.007 16811997.755 16889473.012 10 0 59227 71100.00000 0 -8959018.706 14612408.408 18916949.364 10 0 59227 72000.00000 0 -8939562.836 12178469.648 20577841.786 10 0 59227 72900.00000 0 -9116466.400 9571000.162 21840021.219 10 0 59227 73800.00000 0 -9505531.292 6856236.212 22679069.963 10 0 59227 74700.00000 0 -10110450.928 4103298.219 23078747.063 10 0 59227 75600.00000 0 -10922547.866 1381546.946 23031298.390 10 0 59227 76500.00000 0 -11921044.712 -1242062.629 22537605.982 10 0 59227 77400.00000 0 -13073857.637 -3705521.588 21607173.924 10 0 59227 78300.00000 0 -14338880.333 -5954097.786 20257950.865 10 0 59227 79200.00000 0 -15665705.938 -7942361.759 18515991.899 10 0 59227 80100.00000 0 -16997716.264 -9635824.832 16414965.462 10 0 59227 81000.00000 0 -18274452.159 -11012122.208 13995513.540 10 0 59227 81900.00000 0 -19434166.853 -12061692.414 11304476.244 10 0 59227 82800.00000 0 -20416455.945 -12787924.941 8393994.576 10 0 59227 83700.00000 0 -21164853.975 -13206770.097 5320507.633 10 0 59227 84600.00000 0 -21629288.292 -13345827.388 2143662.882 10 0 59227 85500.00000 0 -21768286.323 -13242950.708 -1074839.720 99